TimeEDT,TemperatureF,Dew PointF,Humidity,Sea Level PressureIn,VisibilityMPH,Wind Direction,Wind SpeedMPH,Gust SpeedMPH,PrecipitationIn,Events,Conditions,WindDirDegrees,DateUTC
12:14 AM,66.2,62.6,88,29.63,5.0,East,9.2,17.3,0.01,Rain,Rain,90,2013-06-13 04:14:00
12:34 AM,66.2,62.6,88,29.62,10.0,NE,11.5,-,0.03,Rain,Rain,50,2013-06-13 04:34:00
12:54 AM,66.2,62.6,88,29.61,5.0,North,6.9,-,0.07,Rain,Heavy Rain,360,2013-06-13 04:54:00
1:14 AM,64.4,62.6,94,29.62,1.5,ENE,4.6,-,0.40,Rain,Heavy Rain,60,2013-06-13 05:14:00
1:34 AM,64.4,62.6,94,29.60,3.0,ENE,16.1,23.0,0.89,Rain,Heavy Rain,60,2013-06-13 05:34:00
1:54 AM,64.4,62.6,94,29.61,7.0,North,10.4,13.8,1.21,Rain,Heavy Rain,350,2013-06-13 05:54:00
2:14 AM,64.4,62.6,94,29.61,2.0,North,10.4,-,0.46,Rain,Heavy Rain,360,2013-06-13 06:14:00
2:34 AM,64.4,62.6,94,29.59,5.0,North,16.1,-,0.75,Rain,Heavy Rain,360,2013-06-13 06:34:00
2:54 AM,64.4,62.6,94,29.54,7.0,NE,18.4,32.2,0.99,Rain,Light Rain,50,2013-06-13 06:54:00
3:14 AM,64.4,62.6,94,29.51,10.0,NE,21.9,27.6,0.03,Rain,Light Rain,40,2013-06-13 07:14:00
3:34 AM,64.4,62.6,94,29.50,10.0,NE,15.0,28.8,0.06,Rain,Rain,40,2013-06-13 07:34:00
3:54 AM,64.4,62.6,94,29.52,10.0,ENE,11.5,19.6,0.06,,Light Drizzle,70,2013-06-13 07:54:00
4:14 AM,64.4,62.6,94,29.53,10.0,NE,8.1,-,N/A,,Overcast,50,2013-06-13 08:14:00
4:34 AM,64.4,62.6,94,29.54,7.0,NNE,9.2,12.7,0.02,Rain,Rain,20,2013-06-13 08:34:00
4:54 AM,64.4,62.6,94,29.55,7.0,NNW,9.2,-,0.04,Rain,Light Rain,340,2013-06-13 08:54:00
5:14 AM,64.4,62.6,94,29.55,4.0,North,6.9,-,N/A,Rain,Light Rain,360,2013-06-13 09:14:00
5:34 AM,64.4,60.8,88,29.57,5.0,North,9.2,-,0.01,Rain,Light Rain,360,2013-06-13 09:34:00
5:54 AM,64.4,60.8,88,29.59,5.0,North,10.4,-,0.01,Rain,Light Rain,350,2013-06-13 09:54:00
6:14 AM,64.4,60.8,88,29.61,5.0,NNW,8.1,-,N/A,Rain,Light Rain,330,2013-06-13 10:14:00
6:34 AM,64.4,60.8,88,29.62,4.0,North,6.9,-,N/A,Rain,Light Rain,350,2013-06-13 10:34:00
6:55 AM,64.4,60.8,88,29.62,4.0,NNW,8.1,-,N/A,Rain,Light Rain,340,2013-06-13 10:55:00
7:14 AM,64.4,60.8,88,29.63,7.0,North,15.0,20.7,N/A,,Light Drizzle,350,2013-06-13 11:14:00
7:34 AM,62.6,57.2,82,29.65,10.0,North,13.8,21.9,N/A,Rain,Light Rain,360,2013-06-13 11:34:00
7:55 AM,62.6,57.2,82,29.65,10.0,North,9.2,-,N/A,Rain,Light Rain,360,2013-06-13 11:55:00
8:14 AM,62.6,57.2,82,29.66,10.0,North,10.4,-,N/A,,Overcast,350,2013-06-13 12:14:00
8:34 AM,64.4,57.2,77,29.67,10.0,North,9.2,-,N/A,Rain,Light Rain,350,2013-06-13 12:34:00
8:54 AM,64.4,57.2,77,29.68,10.0,NNW,8.1,-,N/A,Rain,Light Rain,340,2013-06-13 12:54:00
9:14 AM,64.4,57.2,77,29.69,10.0,NNW,9.2,-,N/A,,Overcast,340,2013-06-13 13:14:00
9:34 AM,64.4,57.2,77,29.70,10.0,North,9.2,-,N/A,,Overcast,350,2013-06-13 13:34:00
9:54 AM,64.4,57.2,77,29.70,10.0,NNW,9.2,-,N/A,,Overcast,340,2013-06-13 13:54:00
10:14 AM,64.4,57.2,77,29.70,10.0,NNW,9.2,-,N/A,,Mostly Cloudy,340,2013-06-13 14:14:00
10:34 AM,68.0,60.8,78,29.70,10.0,NNW,10.4,-,N/A,,Mostly Cloudy,340,2013-06-13 14:34:00
10:54 AM,69.8,60.8,73,29.70,10.0,North,12.7,-,N/A,,Scattered Clouds,360,2013-06-13 14:54:00
11:14 AM,69.8,57.2,64,29.71,10.0,North,11.5,18.4,N/A,,Clear,350,2013-06-13 15:14:00
11:34 AM,71.6,59.0,64,29.72,10.0,NNW,10.4,18.4,N/A,,Clear,340,2013-06-13 15:34:00
11:54 AM,73.4,57.2,57,29.73,10.0,NNW,10.4,-,N/A,,Clear,340,2013-06-13 15:54:00
12:14 PM,73.4,57.2,57,29.73,10.0,NNW,11.5,17.3,N/A,,Clear,340,2013-06-13 16:14:00
12:34 PM,75.2,57.2,53,29.73,10.0,North,11.5,17.3,N/A,,Scattered Clouds,350,2013-06-13 16:34:00
12:54 PM,75.2,55.4,50,29.73,10.0,North,9.2,17.3,N/A,,Scattered Clouds,350,2013-06-13 16:54:00
1:14 PM,75.2,55.4,50,29.74,10.0,NNW,16.1,20.7,N/A,,Mostly Cloudy,340,2013-06-13 17:14:00
1:34 PM,75.2,55.4,50,29.74,10.0,NNW,13.8,20.7,N/A,,Scattered Clouds,340,2013-06-13 17:34:00
1:54 PM,77.0,53.6,44,29.74,10.0,North,11.5,19.6,N/A,,Scattered Clouds,350,2013-06-13 17:54:00
2:13 PM,75.2,55.4,50,29.74,10.0,NNW,13.8,24.2,N/A,,Scattered Clouds,330,2013-06-13 18:13:00
2:34 PM,77.0,55.4,47,29.75,10.0,NNW,16.1,23.0,N/A,,Scattered Clouds,330,2013-06-13 18:34:00
2:54 PM,77.0,53.6,44,29.76,10.0,North,11.5,17.3,N/A,,Mostly Cloudy,350,2013-06-13 18:54:00
3:14 PM,75.2,55.4,50,29.76,10.0,North,11.5,17.3,N/A,,Mostly Cloudy,360,2013-06-13 19:14:00
3:34 PM,77.0,55.4,47,29.77,10.0,North,15.0,21.9,N/A,,Mostly Cloudy,350,2013-06-13 19:34:00
3:54 PM,78.8,53.6,42,29.77,10.0,North,15.0,27.6,N/A,,Scattered Clouds,350,2013-06-13 19:54:00
4:14 PM,78.8,53.6,42,29.78,10.0,NNW,13.8,19.6,N/A,,Scattered Clouds,340,2013-06-13 20:14:00
4:34 PM,77.0,53.6,44,29.79,10.0,North,13.8,18.4,N/A,,Scattered Clouds,350,2013-06-13 20:34:00
4:54 PM,78.8,53.6,42,29.78,10.0,North,16.1,19.6,N/A,,Scattered Clouds,10,2013-06-13 20:54:00
5:14 PM,78.8,53.6,42,29.79,10.0,NNW,12.7,19.6,N/A,,Scattered Clouds,330,2013-06-13 21:14:00
5:34 PM,78.8,51.8,39,29.79,10.0,North,16.1,21.9,N/A,,Scattered Clouds,360,2013-06-13 21:34:00
5:54 PM,78.8,51.8,39,29.79,10.0,North,16.1,20.7,N/A,,Clear,350,2013-06-13 21:54:00
6:14 PM,78.8,51.8,39,29.80,10.0,NNW,11.5,19.6,N/A,,Clear,340,2013-06-13 22:14:00
6:35 PM,78.8,51.8,39,29.80,10.0,North,10.4,16.1,N/A,,Mostly Cloudy,360,2013-06-13 22:35:00
6:54 PM,75.2,50.0,41,29.81,10.0,North,10.4,18.4,N/A,,Mostly Cloudy,360,2013-06-13 22:54:00
7:14 PM,75.2,50.0,41,29.81,10.0,North,11.5,-,N/A,,Scattered Clouds,350,2013-06-13 23:14:00
7:34 PM,75.2,51.8,44,29.82,10.0,North,12.7,20.7,N/A,,Scattered Clouds,10,2013-06-13 23:34:00
7:54 PM,75.2,50.0,41,29.83,10.0,North,10.4,-,N/A,,Scattered Clouds,360,2013-06-13 23:54:00
8:14 PM,73.4,50.0,44,29.84,10.0,NNE,6.9,16.1,N/A,,Clear,20,2013-06-14 00:14:00
8:34 PM,73.4,50.0,44,29.84,10.0,NNE,9.2,-,N/A,,Clear,20,2013-06-14 00:34:00
8:54 PM,71.6,51.8,50,29.85,10.0,North,9.2,-,N/A,,Clear,10,2013-06-14 00:54:00
9:14 PM,71.6,51.8,50,29.85,10.0,North,6.9,-,N/A,,Clear,10,2013-06-14 01:14:00
9:34 PM,69.8,51.8,53,29.86,10.0,NNE,5.8,-,N/A,,Clear,30,2013-06-14 01:34:00
9:54 PM,69.8,53.6,56,29.87,10.0,NNE,5.8,-,N/A,,Clear,20,2013-06-14 01:54:00
10:14 PM,69.8,53.6,56,29.88,10.0,North,4.6,-,N/A,,Clear,10,2013-06-14 02:14:00
10:34 PM,69.8,53.6,56,29.89,10.0,North,4.6,-,N/A,,Scattered Clouds,360,2013-06-14 02:34:00
10:54 PM,68.0,53.6,60,29.89,10.0,NNE,8.1,-,N/A,,Scattered Clouds,20,2013-06-14 02:54:00
11:15 PM,69.8,53.6,56,29.90,10.0,North,10.4,-,N/A,,Clear,10,2013-06-14 03:15:00
11:34 PM,69.8,51.8,53,29.90,10.0,North,10.4,21.9,N/A,,Clear,10,2013-06-14 03:34:00
11:54 PM,68.0,53.6,60,29.91,10.0,North,11.5,16.1,N/A,,Clear,360,2013-06-14 03:54:00